RH
18 21 27 40 45 47 63 67 54 48 38 27 27 31 31 33 32 33 28 27 31 34 32 32 32 29 29 31 31 31 37 34 30 28 24 22 28 35 30 28 30 29 29 37 46
18 18 21 26 34 48 48 64 68 53 45 33 29 30 32 38 38 40 31 34 36 34 30 33 32 32 32 30 33 36 38 34 27 27 28 26 28 32 29 27 27 28 30 31 35
25 21 19 23 34 44 50 49 68 72 51 40 31 31 34 43 44 35 40 37 41 38 32 30 36 36 35 32 34 32 34 27 23 28 31 32 32 29 32 30 25 26 29 30 31
32 30 24 20 20 32 39 43 58 73 67 49 35 34 36 47 50 46 45 44 46 50 43 41 37 38 39 38 36 36 34 29 26 31 35 34 33 33 33 30 28 30 30 35 31
34 34 32 25 24 21 22 37 55 62 75 62 40 38 39 48 50 47 44 46 52 60 57 52 39 35 38 35 38 40 38 34 31 32 37 36 36 35 32 31 25 26 28 32 35
38 37 34 32 30 25 21 28 49 60 75 80 55 40 44 47 50 46 46 47 48 53 60 60 53 43 45 41 43 43 39 37 34 30 32 33 31 32 29 24 25 25 25 26 29
37 35 35 35 31 27 27 26 43 63 69 76 66 47 49 48 47 46 48 49 55 56 69 71 62 57 49 48 52 46 45 41 35 30 31 31 30 29 24 23 23 23 20 20 23
53 45 40 35 33 31 27 25 33 57 72 75 80 56 51 46 49 50 47 50 54 60 64 76 67 63 58 57 51 48 48 48 32 31 30 34 34 28 28 26 25 23 22 21 20
58 56 52 47 39 34 35 28 30 48 72 84 82 71 48 42 46 49 48 51 55 65 66 72 76 69 64 62 58 53 54 48 45 39 36 39 39 33 35 29 28 28 24 22 21
65 67 67 60 48 43 45 37 29 53 77 85 79 79 51 43 43 46 49 57 59 62 71 79 76 69 65 64 61 56 59 53 49 49 43 42 40 35 34 33 32 31 28 26 25
69 82 84 75 64 67 62 42 35 67 97 84 72 68 47 43 42 45 49 60 63 66 69 75 76 72 64 61 56 59 55 52 49 47 43 40 36 32 28 26 24 25 26 26 26
80 86 79 79 84 70 72 53 60 81 89 93 91 77 62 46 46 47 51 57 66 73 69 68 69 62 60 60 60 54 52 51 45 41 39 35 28 25 21 18 18 19 19 19 20
78 71 72 91 94 76 66 48 67 91 98 98 93 85 71 50 48 48 51 55 64 70 71 67 62 59 58 55 52 49 49 46 43 38 34 33 27 20 19 18 17 17 17 17 17
66 72 85 91 96 87 63 48 83 98 98 91 94 88 72 55 52 51 54 56 59 69 69 69 62 57 51 51 47 48 44 44 42 43 46 38 45 22 16 15 16 16 16 17 18
67 84 91 97 99 94 79 59 96 98 97 92 91 93 72 59 53 55 54 55 55 55 58 58 53 53 50 43 44 44 44 44 46 47 46 40 49 24 16 17 17 18 19 21 21
78 79 84 91 94 86 66 71 94 98 97 98 97 88 75 68 57 55 57 55 54 55 55 55 50 46 45 44 45 46 46 46 49 51 59 41 39 24 18 20 19 19 23 24 23
68 82 85 96 83 72 65 88 98 97 98 93 87 82 77 70 59 57 57 57 58 66 64 53 51 47 46 48 47 51 56 67 69 65 55 30 41 27 20 21 22 23 24 29 29
73 90 92 95 83 57 56 92 98 96 98 86 88 90 77 73 62 59 61 61 54 52 60 58 55 48 48 50 54 57 59 63 60 61 47 37 38 28 24 27 30 32 31 33 38
79 86 92 96 79 49 70 90 98 96 87 89 87 91 81 76 59 58 59 54 51 50 56 58 58 51 54 54 55 58 58 48 57 46 58 40 27 29 32 34 35 36 34 33 33
91 90 96 99 58 67 83 82 98 95 84 79 77 74 74 76 62 57 58 50 49 47 49 59 61 56 59 53 49 51 48 65 67 69 61 46 46 43 42 45 41 40 40 39 44
87 85 87 84 56 66 83 83 95 94 81 85 68 66 64 73 64 59 53 51 49 51 54 57 59 61 59 55 51 53 55 55 61 72 78 69 54 45 51 55 44 42 44 46 60
89 71 62 71 81 93 87 84 94 95 86 75 68 59 59 64 67 61 61 60 57 57 60 62 60 66 57 46 45 51 54 64 82 78 80 80 65 53 59 58 57 52 48 57 62
81 58 82 91 95 91 88 97 96 93 86 76 72 61 60 67 70 66 64 61 60 58 60 59 63 69 67 57 52 58 69 72 79 83 82 87 65 54 63 68 65 57 54 60 67
62 66 89 92 96 97 98 96 94 91 85 78 72 68 64 67 63 66 66 61 57 57 56 58 62 67 68 65 64 77 76 78 83 90 81 74 65 68 73 76 76 71 60 64 70
67 80 85 93 95 96 96 94 91 87 83 78 76 74 66 64 65 63 60 62 59 59 59 62 74 68 53 50 62 71 80 86 95 93 93 77 84 81 88 91 79 72 71 72 68
83 80 76 76 85 90 95 98 88 83 80 75 72 71 70 64 64 63 61 61 63 64 62 65 75 61 61 63 73 80 81 81 84 93 93 94 90 91 92 92 86 81 83 80 74
76 77 73 71 75 85 88 85 81 78 76 70 68 66 69 68 67 66 66 64 64 65 68 73 66 67 77 70 77 86 82 91 92 91 95 95 92 91 90 92 95 94 94 80 74